Weather History for Pensacola NAS, FL

Change the Weather History Date:

Saturday, October 13, 2012

  Actual Average Record
Temperature  
Mean Temperature 71 °F -  
Max Temperature 81 °F 77 °F 89 °F (2002)
Min Temperature 61 °F 59 °F 46 °F (2000)
Cooling Degree Days 6    
Growing Degree Days 21 (Base 50)    
Moisture  
Dew Point 66 °F    
Average Humidity 82    
Maximum Humidity 100    
Minimum Humidity 65    
Precipitation  
Precipitation 0.00 in - - ()
Sea Level Pressure  
Sea Level Pressure 30.19 in    
Wind  
Wind Speed 2 mph (ESE)    
Max Wind Speed 9 mph    
Max Gust Speed -    
Visibility 9 miles    
Events Rain    
Averages and records for this station are not official NWS values.
T = Trace of Precipitation, MM = Missing Value Source: NWS Daily Summary

Daily Weather History Graph

Daily Weather History Graph

Search for Another Location

Airport:

Trip Planner

Search our weather history database for the weather conditions in past years. The results will help you decide how hot, cold, wet, or windy it might be!

Date:

Astronomy

Oct. 13, 2012 Rise Set
Actual Time 6:50 AM CDT 6:19 PM CDT
Civil Twilight 6:26 AM CDT 6:43 PM CDT
Nautical Twilight 5:58 AM CDT 7:11 PM CDT
Astronomical Twilight 5:30 AM CDT 7:39 PM CDT
Moon 4:46 AM CDT (10/13) 4:59 PM CDT (10/13)
Length of Visible Light 12h 17m
Length of Day
11h 29m
Waning Crescent, 5% of the Moon is Illuminated
Oct 13
Waning Crescent
Oct 15
New
Oct 21
First Quarter
Oct 29
Full
Nov 6
Last Quarter

Hourly Weather History & Observations

Time (CDT) Temp. Heat Index Dew Point Humidity Pressure Visibility Wind Dir Wind Speed Gust Speed Precip Events Conditions
12:07 AM 62.6 °F - 62.6 °F 100% 30.19 in 2.0 mi Calm Calm - N/A   Clear
12:21 AM 62.6 °F - 62.6 °F 100% 30.19 in 4.0 mi Calm Calm - 0.00 in Rain Light Rain
12:56 AM 61.0 °F - 61.0 °F 100% 30.19 in 2.0 mi Calm Calm - 0.00 in   Clear
1:16 AM 62.6 °F - 62.6 °F 100% 30.18 in 6.0 mi Calm Calm - N/A   Clear
1:56 AM 61.0 °F - 61.0 °F 100% 30.18 in 4.0 mi Calm Calm - N/A   Clear
2:56 AM 61.0 °F - 61.0 °F 100% 30.18 in - Calm Calm - 0.00 in   Clear
3:56 AM 64.0 °F - 63.0 °F 96% 30.19 in 8.0 mi North - - 0.00 in   Clear
4:56 AM 64.0 °F - 63.0 °F 96% 30.19 in 10.0 mi North - - N/A   Clear
5:56 AM 63.0 °F - 62.1 °F 97% 30.20 in 10.0 mi North - - N/A   Clear
6:56 AM 63.0 °F - 62.1 °F 97% 30.22 in 9.0 mi North - - N/A   Clear
7:56 AM 71.1 °F - 66.0 °F 84% 30.23 in 10.0 mi North - - N/A   Clear
8:56 AM 75.0 °F - 66.0 °F 73% 30.23 in 10.0 mi ENE 5.8 mph - N/A   Clear
9:56 AM 77.0 °F - 66.9 °F 71% 30.25 in 10.0 mi East 4.6 mph - N/A   Partly Cloudy
10:56 AM 79.0 °F - 68.0 °F 69% 30.25 in 10.0 mi East 8.1 mph - N/A   Partly Cloudy
11:56 AM 80.1 °F 82.7 °F 68.0 °F 67% 30.24 in 10.0 mi SE 5.8 mph - N/A   Partly Cloudy
12:56 PM 80.1 °F 82.7 °F 68.0 °F 67% 30.21 in 10.0 mi East 5.8 mph - N/A   Scattered Clouds
1:56 PM 81.0 °F 84.1 °F 69.1 °F 67% 30.18 in 10.0 mi ESE 6.9 mph - N/A   Scattered Clouds
2:56 PM 81.0 °F 83.8 °F 68.0 °F 65% 30.16 in 10.0 mi ESE 8.1 mph - N/A   Scattered Clouds
3:56 PM 81.0 °F 83.8 °F 68.0 °F 65% 30.15 in 10.0 mi SE 9.2 mph - N/A   Scattered Clouds
4:56 PM 79.0 °F - 69.1 °F 72% 30.15 in 10.0 mi SSE 3.5 mph - N/A   Partly Cloudy
5:31 PM 78.8 °F - 71.6 °F 78% 30.14 in 10.0 mi SSE 4.6 mph - N/A   Partly Cloudy
5:56 PM 77.0 °F - 69.1 °F 76% 30.15 in 10.0 mi North - - N/A   Partly Cloudy
6:56 PM 77.0 °F - 69.1 °F 76% 30.15 in 10.0 mi North - - N/A   Mostly Cloudy
7:56 PM 75.9 °F - 70.0 °F 82% 30.15 in 10.0 mi North - - N/A   Clear
8:56 PM 75.9 °F - 69.1 °F 79% 30.17 in 10.0 mi North - - N/A   Partly Cloudy
9:56 PM 77.0 °F - 66.0 °F 69% 30.17 in 10.0 mi North - - N/A   Partly Cloudy
10:56 PM 77.0 °F - 66.9 °F 71% 30.16 in 10.0 mi North - - N/A   Overcast
11:56 PM 75.9 °F - 66.9 °F 74% 30.14 in 10.0 mi North - - N/A   Clear